Epoch 2003 Nov. 17.0 TT = JDT 2452960.5 T 2003 Dec. 4.88190 TT MPC q 1.7104464 (2000.0) P Q n 0.10268172 Peri. 177.32300 +0.99735053 -0.05583709 a 4.5165547 Node 186.45817 +0.05663369 +0.99826776 e 0.6212940 Incl. 24.49097 +0.04565681 -0.01853915 P 9.60 From 105 observations 2003 Sept. 19-2013 May 23, mean residual 0".6.
m1 = 14.5 + 5 logΔ + 10.0 log r